Weather observations for the past three days for
Dallas / Addison Airport
Imperial (Metric)
Date Time (cdt) Wind (mph) Vis. (mi.) Weather Sky Cond. Temperature (ºF) Relative Humidity Wind Chill (°F) Heat Index (°F) Pressure Precipitation (in)
Air Dwpt 6 hour altimeter (in) sea level (mb) 1 hr 3 hr 6 hr
Max. Min.
20 03:15 E 9 10.00 Fair CLR 77.9 70.9 79% 80 30.12 0.0
20 02:55 E 10 G 16 10.00 Fair CLR 78.3 70.9 78% 81 30.12 0.0
20 02:35 E 12 G 16 10.00 Fair CLR 78.6 70.7 77% 81 30.12 0.0
20 02:15 E 9 10.00 Fair CLR 78.8 70.7 76% 82 30.12 0.0
20 01:55 E 9 10.00 Fair CLR 79.2 70.5 75% 82 30.13 0.0
20 01:35 E 10 G 16 10.00 Fair CLR 79.5 70.2 73% 83 30.13 0.0
20 01:15 E 8 10.00 Fair CLR 79.7 70 72% 83 30.13 0.0
20 00:55 E 10 10.00 Fair CLR 79.9 69.8 83.7 79.9 71% 83 30.14 0.0
20 00:35 E 9 10.00 Fair CLR 80.1 69.8 71% 83 30.14 0.0
20 00:15 E 8 10.00 Fair CLR 80.2 69.6 70% 83 30.15 0.0
19 23:55 E 7 10.00 Partly Cloudy SCT042 80.1 69.8 71% 83 30.15 0.0
19 23:35 E 3 10.00 Light Rain SCT035 SCT042 79.9 70.2 72% 83 30.15 0.0
19 23:15 E 6 10.00 Fair CLR 81 68.9 67% 84 30.14 0.0
19 22:55 E 6 10.00 Fair CLR 81.1 68.5 66% 84 30.14 0.0
19 22:35 E 6 10.00 Fair CLR 81.5 68 64% 84 30.13 0.0
19 22:15 E 8 10.00 Fair CLR 81.5 67.5 63% 84 30.12 0.0
19 21:47 E 8 10.00 Clear SKC 82.4 66.2 58% 85 30.11 0.0
19 20:47 E 7 10.00 Clear SKC 82.4 66.2 58% 85 30.09 0.0
19 19:47 E 8 10.00 Clear SKC 84.2 64.4 51% 86 30.09 0.0
19 18:51 E 12 10.00 Clear SKC 84.2 64.4 51% 86 30.08 0.0
19 17:47 E 10 10.00 Clear SKC 84.2 64.4 51% 86 30.08 0.0
19 16:55 E 17 10.00 A Few Clouds FEW045 84.2 64.4 51% 86 30.09 0.0
19 15:49 NE 10 10.00 Mostly Cloudy SCT040 BKN046 86 68 55% 89 30.08 0.0
19 14:47 E 9 10.00 Partly Cloudy SCT037 86 68 55% 89 30.09 0.0
19 13:47 E 9 10.00 Mostly Cloudy BKN038 84.2 68 58% 87 30.1 0.0
19 12:49 NE 10 10.00 Mostly Cloudy BKN031 BKN038 82.4 68 62% 85 30.11 0.0
19 11:58 NE 12 10.00 Mostly Cloudy BKN033 BKN039 82.4 68 62% 85 30.11 0.0
19 10:47 NE 7 10.00 Mostly Cloudy SCT023 BKN032 BKN080 80.6 69.8 70% 84 30.1 0.0
19 09:50 E 7 10.00 Mostly Cloudy BKN019 BKN033 80.6 69.8 70% 84 30.11 0.0
19 08:47 E 8 10.00 Mostly Cloudy BKN013 BKN035 78.8 69.8 74% 81 30.1 0.0
19 07:50 NE 7 10.00 Mostly Cloudy BKN009 75.2 69.8 83% 75 30.07 0.0
19 06:47 E 5 10.00 Partly Cloudy SCT013 73.4 69.8 89% 30.03 0.0
19 05:55 E 5 10.00 Partly Cloudy SCT015 73.4 69.8 89% 30.01 0.0
19 05:35 E 7 10.00 Overcast OVC015 74.3 68 81% 30 0.0
19 05:15 E 8 10.00 Mostly Cloudy BKN015 74.8 68 79% 30 0.0
19 04:55 SE 8 10.00 Fair CLR 74.8 68 79% 29.99 0.0
19 04:35 E 8 10.00 Fair CLR 74.8 67.5 78% 29.99 0.0
19 04:15 E 7 10.00 Fair CLR 75.4 67.1 76% 77 29.98 0.0
19 03:55 SE 7 10.00 Fair CLR 75.7 67.1 75% 77 29.98 0.0
19 03:35 SE 8 10.00 Fair CLR 76.1 66.6 72% 78 29.98 0.0
19 03:15 SE 12 10.00 Fair CLR 76.1 66.6 72% 78 29.98 0.0
19 02:55 SE 8 10.00 Fair CLR 76.8 66.9 72% 79 29.98 0.0
19 02:35 S 9 10.00 Fair CLR 77 66.6 70% 79 29.98 0.0
19 02:15 SE 12 10.00 Fair CLR 77.2 66.7 70% 79 29.98 0.0
19 01:55 SE 8 10.00 Fair CLR 77.7 67.1 70% 80 29.98 0.0
19 01:35 SE 8 10.00 Partly Cloudy SCT023 77.9 68.2 72% 80 29.98 0.0
19 01:15 SE 7 G 16 10.00 Mostly Cloudy BKN023 BKN029 78.3 68.9 73% 81 29.98 0.0
19 00:55 SE 10 10.00 Partly Cloudy SCT025 SCT031 78.8 68.9 90.1 78.8 72% 81 29.97 0.0
19 00:35 SE 12 G 17 10.00 Overcast BKN025 OVC031 79.2 69.1 71% 82 29.97 0.0
19 00:15 SE 12 G 17 10.00 Mostly Cloudy BKN025 BKN036 79.7 69.4 71% 83 29.96 0.0
18 23:55 SE 14 G 20 10.00 Partly Cloudy SCT029 SCT036 80.1 69.3 70% 83 29.96 0.0
18 23:35 SE 16 G 24 10.00 Fair CLR 80.6 68.9 68% 84 29.96 0.0
18 23:15 SE 15 G 26 10.00 Partly Cloudy SCT033 SCT047 81.1 69.1 67% 84 29.95 0.0
18 22:55 SE 13 G 20 10.00 Partly Cloudy SCT033 SCT045 82.4 68.9 64% 86 29.94 0.0
18 22:35 SE 23 G 29 10.00 Partly Cloudy and Breezy SCT035 SCT041 82.8 68.5 62% 86 29.93 0.0
18 22:15 SE 21 G 32 10.00 Fair and Breezy CLR 83.7 68.5 60% 87 29.92 0.0
18 21:47 SE 13 G 25 13.00 Clear SKC 84.2 68 58% 87 29.9 0.0
18 20:47 E 18 G 24 13.00 Clear SKC 84.2 66.2 55% 87 29.88 0.0
18 19:47 E 18 G 22 13.00 Partly Cloudy SCT050 SCT055 89.6 66.2 46% 92 29.86 0.0
18 18:47 SE 16 G 24 13.00 Partly Cloudy SCT050 91.4 66.2 44% 94 29.86 0.0
18 17:58 SE 16 G 24 13.00 Partly Cloudy SCT080 91.4 66.2 44% 94 29.86 0.0
18 16:47 SE 15 G 22 13.00 Partly Cloudy SCT049 SCT065 91.4 68 46% 96 29.87 0.0
18 15:47 SE 14 G 18 13.00 Mostly Cloudy SCT047 BKN080 89.6 66.2 46% 92 29.88 0.0
18 14:52 SE 14 G 24 13.00 Mostly Cloudy SCT047 BKN080 87.8 68 52% 91 29.89 0.0
18 13:54 SE 14 G 22 13.00 Mostly Cloudy SCT042 BKN050 87.8 68 52% 91 29.9 0.0
18 12:54 SE 15 G 21 13.00 Mostly Cloudy SCT037 SCT044 BKN060 86 68 55% 89 29.91 0.0
18 11:54 S 15 G 20 10.00 Mostly Cloudy SCT033 SCT042 BKN048 86 69.8 59% 91 29.9 0.0
18 10:47 SE 12 G 20 10.00 Mostly Cloudy BKN025 BKN032 82.4 69.8 66% 86 29.91 0.0
18 09:47 SE 13 G 18 10.00 Mostly Cloudy BKN019 BKN025 BKN060 78.8 69.8 74% 81 29.93 0.0
18 08:51 SE 9 G 18 10.00 Mostly Cloudy BKN015 BKN023 77 69.8 79% 79 29.93 0.0
18 07:47 E 12 G 16 10.00 Overcast OVC013 75.2 69.8 83% 75 29.9 0.0
18 06:50 SE 14 G 20 10.00 Mostly Cloudy SCT013 BKN020 BKN040 75.2 69.8 83% 75 29.89 0.0
18 05:47 SE 14 10.00 A Few Clouds FEW020 75.2 69.8 83% 75 29.87 0.0
18 05:35 SE 14 10.00 Fair CLR 75.2 68.9 81% 76 29.87 0.0
18 05:15 S 15 10.00 Fair CLR 75.4 68.5 79% 76 29.86 0.0
18 04:55 S 15 G 20 10.00 Fair CLR 75.9 68.4 78% 77 29.86 0.0
18 04:35 S 13 10.00 Fair CLR 76.3 68.2 76% 78 29.86 0.0
18 04:15 S 14 G 20 10.00 Fair CLR 76.8 68 74% 78 29.86 0.0
18 03:55 S 8 G 20 10.00 Fair CLR 77.2 67.6 73% 79 29.86 0.0
18 03:35 S 13 G 23 10.00 Fair CLR 77.4 67.5 72% 79 29.85 0.0
18 03:15 S 13 G 20 7.00 Fair CLR 77.9 67.3 70% 80 29.85 0.0
18 02:55 S 14 G 23 10.00 Fair CLR 78.6 67.1 68% 81 29.85 0.0
18 02:35 S 18 G 24 10.00 Fair CLR 78.8 68 70% 81 29.84 0.0
18 02:15 S 15 G 24 10.00 Fair CLR 79.2 68.2 69% 82 29.85 0.0
18 01:55 S 15 G 24 10.00 Fair CLR 79.2 69.8 73% 82 29.85 0.0
18 01:15 S 16 G 25 7.00 Mostly Cloudy BKN023 79.7 71.1 75% 83 29.87 0.0
18 00:55 S 16 G 30 10.00 Mostly Cloudy BKN025 BKN031 80.1 70.9 74% 84 29.87 0.0
18 00:35 S 18 G 26 10.00 Partly Cloudy SCT025 80.6 70.9 72% 84 29.87 0.0
18 00:15 S 22 G 30 10.00 Mostly Cloudy and Breezy BKN027 80.8 71.1 72% 85 29.86 0.0
17 23:55 S 18 G 30 10.00 Partly Cloudy SCT025 SCT032 81.1 71.2 72% 85 29.86 0.0
17 23:35 SE 17 G 23 10.00 Partly Cloudy SCT027 SCT032 0 0 0% 29.87 0.0
17 23:15 S 21 G 24 10.00 Partly Cloudy and Breezy SCT025 82 71.6 71% 87 29.86 0.0
17 22:55 SE 17 G 29 10.00 Partly Cloudy SCT027 82.4 72 71% 87 29.86 0.0
17 22:35 SE 13 G 29 10.00 Overcast BKN027 BKN035 OVC065 0 0 0% 29.86 0.0
17 22:15 SE 15 G 23 10.00 Mostly Cloudy BKN031 BKN055 BKN070 83.7 72 68% 89 29.84 0.0
17 21:47 SE 17 G 29 10.00 Mostly Cloudy BKN038 BKN048 BKN070 86 71.6 62% 92 29.83 0.0
17 20:47 SE 23 G 31 10.00 Mostly Cloudy and Breezy SCT044 BKN060 87.8 69.8 55% 93 29.8 0.0
17 19:47 SE 21 G 28 10.00 A Few Clouds and Breezy FEW050 91.4 71.6 52% 99 29.79 0.0
17 18:47 SE 20 G 28 10.00 Mostly Cloudy BKN048 BKN065 91.4 71.6 52% 99 29.78 0.0
17 17:47 SE 17 G 25 10.00 Partly Cloudy SCT048 91.4 69.8 49% 97 29.78 0.0
17 16:47 SE 18 10.00 Partly Cloudy SCT050 93.2 69.8 47% 99 29.79 0.0
17 15:47 SE 17 G 25 10.00 Partly Cloudy SCT048 SCT050 91.4 68 46% 96 29.81 0.0
17 14:47 SE 14 10.00 Mostly Cloudy BKN048 BKN055 91.4 69.8 49% 97 29.83 0.0
17 13:51 S 15 G 22 10.00 Mostly Cloudy BKN043 BKN050 91.4 69.8 49% 97 29.85 0.0
17 12:47 SE 17 G 25 10.00 Mostly Cloudy BKN040 BKN050 89.6 69.8 52% 95 29.86 0.0
17 11:47 S 15 G 22 10.00 Mostly Cloudy BKN034 BKN039 BKN050 87.8 69.8 55% 93 29.88 0.0
17 10:51 SE 15 G 21 10.00 Mostly Cloudy BKN018 BKN028 BKN035 86 71.6 62% 92 29.88 0.0
17 06:47 S 12 10.00 Overcast OVC015 78.8 71.6 79% 82 29.86 0.0
17 05:53 SE 14 G 18 10.00 Partly Cloudy SCT017 77 71.6 83% 78 29.86 0.0
17 05:35 S 12 G 18 10.00 Fair CLR 77.7 70.9 80% 80 29.85 0.0
17 05:15 S 9 G 17 10.00 Fair CLR 77.9 70.7 79% 80 29.85 0.0
17 04:55 S 12 10.00 Fair CLR 78.1 70.2 77% 80 29.85 0.0
17 04:35 S 9 10.00 Fair CLR 78.6 69.8 74% 81 29.85 0.0
17 04:15 S 9 10.00 Fair CLR 79 69.8 74% 82 29.84 0.0
17 03:55 S 10 10.00 Fair CLR 79.2 69.3 72% 82 29.85 0.0
17 03:35 S 14 10.00 Fair CLR 79.7 69.1 70% 82 29.85 0.0
Date Time (cdt) Wind (mph) Vis. (mi.) Weather Sky Cond. Air Dwpt Max. Min. Relative Humidity Wind Chill (°F) Heat Index (°F) altimeter (in) sea level (mb) 1 hr 3 hr 6 hr
6 hour
Temperature (ºF) Pressure Precipitation (in)